period_start,C,m1,H,J0,J1,J2,J3,J4,J5,JA,JB,JC,JD,JJ,JK,JN,#
2014-05-17 00:01:41,0.07,1.88,0.00,17.63,21.50,24.10,9.65,42.37,999.53,2063.98,2848.72,2828.86,3021.68,499.91,497.29,35.35,0000 0000 0000 0000 000000
2014-05-17 00:06:42,0.07,1.88,0.00,17.65,21.50,24.10,9.67,42.37,999.53,2063.98,2847.45,2828.01,3020.82,499.92,497.18,35.40,0000 0000 0000 0000 000000
2014-05-17 00:11:43,0.07,1.88,0.00,17.68,21.52,24.12,9.63,42.18,999.53,2063.96,2846.25,2827.13,3019.91,500.31,497.60,35.44,0000 0000 0000 0000 000000
2014-05-17 00:16:45,0.09,1.89,0.00,17.70,21.52,24.13,9.63,42.24,999.53,2063.95,2845.02,2826.31,3018.91,500.21,497.29,35.48,0000 0000 0000 0000 000000
2014-05-17 00:21:46,0.08,1.89,0.00,17.73,21.52,24.12,9.59,42.34,999.50,2063.97,2843.81,2825.53,3018.02,500.15,497.21,35.52,0000 0000 0000 0000 000000
2014-05-17 00:26:47,0.07,1.89,0.00,17.74,21.53,24.13,9.66,42.32,999.35,2063.96,2842.55,2824.75,3017.10,500.16,497.28,35.56,0000 0000 0000 0000 000000
2014-05-17 00:31:48,0.07,1.90,0.00,17.76,21.54,24.14,9.69,42.32,999.15,2063.94,2841.40,2823.93,3016.21,500.64,497.56,35.60,0000 0000 0000 0000 000000
2014-05-17 00:36:50,0.08,1.90,0.00,17.79,21.54,24.15,9.66,42.44,999.10,2063.90,2840.01,2823.02,3015.22,500.42,497.17,35.65,0000 0000 0000 0000 000000
2014-05-17 00:41:51,0.06,1.90,0.00,17.82,21.55,24.15,9.60,42.38,999.06,2063.78,2838.81,2822.11,3014.33,499.96,496.87,35.69,0000 0000 0000 0000 000000
2014-05-17 00:46:52,0.07,1.91,0.00,17.85,21.57,24.17,9.54,42.23,999.05,2063.65,2837.59,2821.23,3013.36,499.71,496.46,35.73,0000 0000 0000 0000 000000
2014-05-17 00:51:53,0.06,1.91,0.00,17.91,21.58,24.17,9.64,42.33,999.04,2063.44,2836.22,2820.36,3012.33,499.94,496.63,35.77,0000 0000 0000 0000 000000
2014-05-17 00:56:55,0.07,1.91,0.00,17.98,21.60,24.23,9.60,42.30,999.04,2063.29,2834.91,2819.47,3011.32,499.92,496.55,35.81,0000 0000 0000 0000 000000
2014-05-17 01:01:56,0.07,1.92,0.00,18.04,21.63,24.27,9.63,42.42,999.04,2063.04,2833.47,2818.40,3010.25,499.95,496.39,35.85,0000 0000 0000 0000 000000
2014-05-17 01:06:57,0.09,1.92,0.00,18.10,21.65,24.31,9.55,42.40,999.05,2063.02,2831.95,2817.47,3009.12,499.58,496.04,35.90,0000 0000 0000 0000 000000
2014-05-17 01:11:58,0.09,1.92,0.00,18.15,21.68,24.34,9.63,42.36,999.07,2063.01,2830.71,2816.51,3008.08,499.76,496.02,35.94,0000 0000 0000 0000 000000
2014-05-17 01:16:59,0.09,1.93,0.00,18.20,21.71,24.40,9.61,42.31,999.06,2063.00,2829.17,2815.58,3007.07,500.01,496.19,35.98,0000 0000 0000 0000 000000
2014-05-17 01:21:59,0.09,1.93,0.00,18.24,21.75,24.44,9.57,42.30,999.10,2063.00,2827.88,2814.63,3006.10,499.93,496.04,36.02,0000 0000 0000 0000 000000
2014-05-17 01:27:00,0.09,1.93,0.00,18.28,21.78,24.49,9.61,42.33,999.25,2063.00,2826.38,2813.70,3004.99,499.86,496.03,36.06,0000 0000 0000 0000 000000
2014-05-17 01:32:01,0.08,1.94,0.00,18.31,21.81,24.51,9.55,42.17,999.36,2062.98,2825.16,2812.70,3003.94,499.54,495.92,36.10,0000 0000 0000 0000 000000
2014-05-17 01:37:02,0.09,1.94,0.00,18.34,21.85,24.56,9.58,42.17,999.50,2062.88,2823.87,2811.68,3002.82,499.75,495.88,36.15,0000 0000 0000 0000 000000
2014-05-17 01:42:03,0.05,1.94,0.00,18.35,21.88,24.61,9.60,42.19,999.53,2062.54,2822.48,2810.67,3001.70,500.38,496.56,36.19,0000 0000 0000 0000 000000
2014-05-17 01:47:04,0.05,1.95,0.00,18.38,21.92,24.65,9.62,42.07,999.53,2062.15,2821.01,2809.65,3000.60,500.47,496.63,36.23,0000 0000 0000 0000 000000
2014-05-17 01:52:05,0.09,1.95,0.00,18.41,21.95,24.67,9.61,41.92,999.53,2062.02,2819.51,2808.65,2999.47,500.34,496.53,36.27,0000 0000 0000 0000 000000
2014-05-17 01:57:05,0.08,1.95,0.00,18.43,21.99,24.70,9.54,42.03,999.53,2062.01,2818.07,2807.71,2998.32,499.84,495.97,36.31,0000 0000 0000 0000 000000
2014-05-17 02:02:06,0.10,1.96,0.00,18.46,22.03,24.72,9.61,42.21,999.55,2062.00,2816.70,2806.68,2997.28,500.13,496.22,36.35,0000 0000 0000 0000 000000
2014-05-17 02:07:07,0.09,1.96,0.00,18.48,22.06,24.74,9.55,42.09,999.66,2061.98,2815.51,2805.61,2996.15,500.03,496.06,36.40,0000 0000 0000 0000 000000
2014-05-17 02:12:08,0.08,1.96,0.00,18.51,22.10,24.77,9.54,42.16,999.96,2061.92,2814.33,2804.60,2995.15,499.99,496.14,36.44,0000 0000 0000 0000 000000
2014-05-17 02:17:08,0.02,1.97,0.00,18.56,22.13,24.78,9.58,42.17,1000.00,2061.52,2812.90,2803.62,2993.95,500.23,496.25,36.48,0000 0000 0000 0000 000000
2014-05-17 02:22:09,0.07,1.97,0.00,18.64,22.17,24.80,9.54,42.23,1000.01,2061.09,2811.63,2802.53,2992.86,499.60,495.46,36.52,0000 0000 0000 0000 000000
2014-05-17 02:27:10,0.11,1.97,0.00,18.71,22.21,24.86,9.59,42.21,1000.02,2061.02,2809.97,2801.49,2991.69,500.32,496.04,36.56,0000 0000 0000 0000 000000
2014-05-17 02:32:11,0.09,1.98,0.00,18.81,22.25,24.91,9.61,42.33,1000.01,2061.00,2808.72,2800.43,2990.62,499.81,495.36,36.60,0000 0000 0000 0000 000000
2014-05-17 02:37:12,0.09,1.98,0.00,18.89,22.30,24.97,9.50,42.30,1000.02,2060.99,2807.36,2799.44,2989.48,500.09,495.21,36.65,0000 0000 0000 0000 000000
2014-05-17 02:42:14,0.10,1.99,0.00,18.96,22.34,25.00,9.59,42.35,1000.02,2060.97,2805.79,2798.16,2988.13,499.92,495.41,36.69,0000 0000 0000 0000 000000
2014-05-17 02:47:15,0.07,1.99,0.00,19.02,22.40,25.08,9.56,42.40,1000.09,2060.63,2804.06,2797.02,2986.82,499.60,494.84,36.73,0000 0000 0000 0000 000000
2014-05-17 02:52:16,0.06,1.99,0.00,19.08,22.45,25.15,9.57,42.58,1000.16,2060.13,2802.24,2795.82,2985.53,500.50,495.56,36.77,0000 0000 0000 0000 000000
2014-05-17 02:57:17,0.10,2.00,0.00,19.17,22.50,25.21,9.56,42.38,1000.12,2060.00,2800.57,2794.70,2984.16,500.44,495.49,36.81,0000 0000 0000 0000 000000
2014-05-17 03:02:18,0.12,2.00,0.00,19.25,22.56,25.27,9.57,42.58,1000.20,2060.00,2799.07,2793.50,2982.88,500.26,495.19,36.85,0000 0000 0000 0000 000000
2014-05-17 03:07:19,0.11,2.00,0.00,19.33,22.62,25.34,9.53,42.41,1000.12,2059.98,2797.41,2792.35,2981.58,499.61,494.34,36.90,0000 0000 0000 0000 000000
2014-05-17 03:12:20,0.08,2.01,0.00,19.42,22.68,25.41,9.55,42.52,1000.09,2059.87,2795.78,2791.10,2980.32,499.85,494.49,36.94,0000 0000 0000 0000 000000
2014-05-17 03:17:21,0.03,2.01,0.00,19.50,22.74,25.49,9.59,42.57,1000.19,2059.26,2794.29,2789.89,2978.95,499.99,494.53,36.98,0000 0000 0000 0000 000000
2014-05-17 03:22:22,0.12,2.01,0.00,19.55,22.80,25.54,9.53,42.76,1000.26,2059.01,2792.63,2788.68,2977.65,499.77,494.28,37.02,0000 0000 0000 0000 000000
2014-05-17 03:27:23,0.12,2.02,0.00,19.64,22.86,25.61,9.62,42.41,1000.47,2059.00,2790.87,2787.44,2976.26,500.49,494.71,37.06,0000 0000 0000 0000 000000
2014-05-17 03:32:24,0.11,2.03,0.00,19.72,22.92,25.67,9.55,42.35,1000.50,2058.95,2789.11,2786.11,2974.76,499.94,494.30,37.10,0000 0000 0000 0000 000000
2014-05-17 03:37:25,0.04,2.03,0.00,19.75,22.99,25.75,9.56,42.14,1000.55,2058.38,2787.52,2784.83,2973.47,500.34,494.48,37.15,0000 0000 0000 0000 000000
2014-05-17 03:42:26,0.09,2.03,0.00,19.80,23.05,25.82,9.61,42.20,1000.80,2058.01,2785.80,2783.64,2972.07,500.23,494.58,37.19,0000 0000 0000 0000 000000
2014-05-17 03:47:28,0.12,2.04,0.00,19.85,23.11,25.89,9.52,42.17,1000.98,2058.00,2784.13,2782.37,2970.69,499.92,494.32,37.23,0000 0000 0000 0000 000000
2014-05-17 03:52:29,0.10,2.04,0.00,19.90,23.18,25.96,9.59,42.07,1000.99,2057.89,2782.34,2780.99,2969.22,499.97,494.24,37.27,0000 0000 0000 0000 000000
2014-05-17 03:57:30,0.05,2.04,0.00,19.96,23.25,26.02,9.53,42.21,1000.99,2057.25,2780.53,2779.69,2967.74,499.91,494.01,37.31,0000 0000 0000 0000 000000
2014-05-17 04:02:31,0.10,2.05,0.00,20.01,23.31,26.09,9.51,42.15,1001.00,2057.01,2778.81,2778.43,2966.39,499.77,493.83,37.35,0000 0000 0000 0000 000000
2014-05-17 04:07:32,0.12,2.05,0.00,20.05,23.37,26.15,9.57,42.08,1001.04,2057.00,2777.03,2777.13,2964.94,499.97,494.11,37.40,0000 0000 0000 0000 000000
2014-05-17 04:12:33,0.12,2.06,0.00,20.11,23.44,26.22,9.53,42.07,1001.18,2056.97,2775.34,2775.85,2963.62,499.89,493.87,37.44,0000 0000 0000 0000 000000
2014-05-17 04:17:34,0.03,2.06,0.00,20.17,23.51,26.30,9.42,42.10,1001.36,2056.37,2773.70,2774.56,2962.16,499.13,493.15,37.48,0000 0000 0000 0000 000000
2014-05-17 04:22:35,0.11,2.06,0.00,20.20,23.57,26.36,9.59,42.11,1001.46,2056.02,2771.86,2773.21,2960.70,499.72,493.91,37.52,0000 0000 0000 0000 000000
2014-05-17 04:27:37,0.12,2.07,0.00,20.27,23.64,26.43,9.48,41.97,1001.52,2056.00,2770.08,2771.90,2959.26,499.75,493.52,37.56,0000 0000 0000 0000 000000
2014-05-17 04:32:37,0.12,2.07,0.00,20.31,23.70,26.51,9.49,41.95,1001.90,2055.92,2768.48,2770.65,2957.87,500.11,494.01,37.60,0000 0000 0000 0000 000000
2014-05-17 04:37:38,0.02,2.08,0.00,20.34,23.77,26.56,9.59,41.97,1001.98,2055.33,2766.94,2769.38,2956.57,500.21,494.09,37.65,0000 0000 0000 0000 000000
2014-05-17 04:42:39,0.09,2.08,0.00,20.37,23.83,26.62,9.58,42.06,1002.07,2055.01,2765.35,2768.15,2955.20,500.06,494.11,37.69,0000 0000 0000 0000 000000
2014-05-17 04:47:40,0.14,2.08,0.00,20.41,23.89,26.67,9.55,42.08,1002.01,2054.99,2763.69,2766.79,2953.79,500.04,493.76,37.73,0000 0000 0000 0000 000000
2014-05-17 04:52:41,0.09,2.09,0.00,20.48,23.96,26.74,9.56,42.04,1001.96,2054.79,2761.99,2765.46,2952.36,500.39,494.07,37.77,0000 0000 0000 0000 000000
2014-05-17 04:57:42,0.03,2.09,0.00,20.53,24.02,26.80,9.53,42.17,1001.58,2054.21,2760.57,2764.34,2951.17,499.96,493.46,37.81,0000 0000 0000 0000 000000
2014-05-17 05:02:42,0.07,2.09,0.00,20.57,24.08,26.86,9.54,42.05,1001.47,2054.01,2759.59,2763.42,2950.14,500.18,493.67,37.85,0000 0000 0000 0000 000000
2014-05-17 05:07:44,0.06,2.10,0.00,20.61,24.14,26.94,9.55,42.12,1001.56,2053.99,2758.64,2762.67,2949.30,499.99,493.31,37.90,0000 0000 0000 0000 000000
2014-05-17 05:12:44,0.01,2.10,0.00,20.68,24.19,26.98,9.52,42.04,1001.92,2053.79,2757.98,2761.99,2948.65,500.19,493.59,37.94,0000 0000 0000 0000 000000
2014-05-17 05:17:46,-0.01,2.10,0.00,20.80,24.25,27.08,9.60,41.97,1002.02,2053.12,2757.27,2761.23,2948.01,500.20,493.50,37.98,0000 0000 0000 0000 000000
2014-05-17 05:22:47,0.03,2.10,0.00,20.93,24.31,27.16,9.53,41.89,1002.45,2053.00,2757.01,2760.84,2947.39,500.01,493.30,38.02,0000 0000 0000 0000 000000
2014-05-17 05:27:47,0.04,2.10,0.00,21.03,24.37,27.20,9.52,42.00,1002.55,2052.97,2756.69,2760.07,2947.00,499.49,492.67,38.06,0000 0000 0000 0000 000000
2014-05-17 05:32:48,-0.03,2.10,0.00,21.04,24.42,27.26,9.53,41.89,1002.77,2052.53,2756.12,2759.77,2946.45,500.36,493.51,38.10,0000 0000 0000 0000 000000
2014-05-17 05:37:50,-0.01,2.10,0.00,21.00,24.47,27.37,9.50,41.89,1002.83,2052.04,2755.95,2759.05,2946.00,500.11,493.42,38.15,0000 0000 0000 0000 000000
2014-05-17 05:42:51,0.05,2.10,0.00,21.09,24.52,27.48,9.56,41.99,1002.60,2052.00,2755.17,2758.85,2945.35,499.92,493.00,38.19,0000 0000 0000 0000 000000
2014-05-17 05:47:52,0.02,2.10,0.00,21.01,24.57,27.63,9.53,42.02,1002.46,2051.97,2754.99,2758.11,2945.00,500.05,493.39,38.23,0000 0000 0000 0000 000000
2014-05-17 05:52:53,-0.02,2.10,0.00,20.96,24.62,27.80,9.48,42.00,1002.42,2051.80,2754.64,2757.98,2944.63,499.37,492.56,38.27,0000 0000 0000 0000 000000
2014-05-17 05:57:55,-0.01,2.10,0.00,20.95,24.67,27.96,9.58,42.04,1002.43,2051.17,2754.26,2757.41,2944.08,500.31,493.32,38.31,0000 0000 0000 0000 000000
2014-05-17 06:02:56,0.00,2.10,0.00,20.97,24.71,28.08,9.57,41.95,1002.45,2051.02,2753.99,2757.01,2943.99,500.54,493.49,38.35,0000 0000 0000 0000 000000
2014-05-17 06:07:57,0.02,2.10,0.00,20.95,24.75,28.11,9.54,42.12,1002.46,2051.00,2753.77,2756.90,2943.43,499.95,493.05,38.40,0000 0000 0000 0000 000000
2014-05-17 06:12:58,0.04,2.10,0.00,20.94,24.79,28.12,9.53,42.10,1002.46,2050.97,2753.32,2756.22,2943.01,499.68,492.86,38.44,0000 0000 0000 0000 000000
2014-05-17 06:17:59,-0.05,2.10,0.00,20.93,24.82,28.22,9.51,42.02,1002.68,2050.55,2753.05,2756.00,2942.90,499.92,493.38,38.48,0000 0000 0000 0000 000000
2014-05-17 06:23:00,-0.01,2.10,0.00,20.92,24.86,28.25,9.59,42.08,1002.93,2050.18,2752.95,2755.99,2942.37,499.97,493.39,38.52,0000 0000 0000 0000 000000
2014-05-17 06:28:01,0.04,2.10,0.00,20.88,24.88,28.21,9.60,42.05,1002.95,2050.04,2752.42,2755.54,2942.04,500.05,493.66,38.56,0000 0000 0000 0000 000000
2014-05-17 06:33:03,0.01,2.10,0.00,20.79,24.90,28.05,9.55,42.09,1002.96,2050.02,2752.02,2755.03,2941.98,500.18,493.95,38.60,0000 0000 0000 0000 000000
2014-05-17 06:38:04,0.01,2.10,0.00,20.81,24.92,28.04,9.61,42.18,1002.99,2050.00,2751.94,2754.97,2941.59,500.08,493.77,38.65,0000 0000 0000 0000 000000
2014-05-17 06:43:04,0.12,2.11,0.00,20.79,24.92,28.04,9.55,42.23,1003.08,2049.99,2750.85,2753.93,2940.57,499.80,493.63,38.69,0000 0000 0000 0000 000000
2014-05-17 06:48:05,0.10,2.11,0.00,20.67,24.94,27.98,9.55,42.29,1003.14,2049.99,2749.35,2752.80,2939.27,499.83,493.89,38.73,0000 0000 0000 0000 000000
2014-05-17 06:53:06,0.03,2.11,0.00,20.69,24.95,27.95,9.54,42.17,1003.07,2049.98,2748.74,2752.10,2938.89,499.87,493.97,38.77,0000 0000 0000 0000 000000
2014-05-17 06:58:07,0.03,2.12,0.00,20.60,24.94,27.90,9.57,42.23,1003.03,2049.98,2748.03,2752.00,2938.12,499.99,494.21,38.81,0000 0000 0000 0000 000000
2014-05-17 07:03:08,0.00,2.12,0.00,20.66,24.94,27.91,9.60,42.16,1003.16,2049.99,2747.94,2752.00,2938.01,500.29,494.27,38.85,0000 0000 0000 0000 000000
2014-05-17 07:08:09,0.01,2.12,0.00,20.73,24.93,27.95,9.59,42.27,1003.39,2049.98,2747.54,2752.00,2937.99,499.82,493.85,38.90,0000 0000 0000 0000 000000
2014-05-17 07:13:10,0.01,2.12,0.00,20.76,24.92,27.98,9.57,42.08,1003.54,2049.98,2747.22,2751.98,2937.97,499.75,493.90,38.94,0000 0000 0000 0000 000000
2014-05-17 07:18:10,0.00,2.12,0.00,20.79,24.92,28.01,9.57,42.04,1003.81,2049.97,2747.06,2751.94,2937.92,500.22,494.37,38.98,0000 0000 0000 0000 000000
2014-05-17 07:23:11,0.03,2.12,0.00,20.85,24.92,28.08,9.59,42.27,1003.68,2049.94,2746.98,2751.48,2937.52,500.00,494.10,39.02,0000 0000 0000 0000 000000
2014-05-17 07:28:12,0.05,2.12,0.00,20.86,24.92,28.13,9.62,42.38,1003.45,2049.97,2746.12,2751.01,2937.00,500.35,494.17,39.06,0000 0000 0000 0000 000000
2014-05-17 07:33:13,0.04,2.12,0.00,20.84,24.92,28.11,9.55,42.19,1003.44,2049.98,2745.42,2750.99,2936.32,500.03,493.99,39.10,0000 0000 0000 0000 000000
2014-05-17 07:38:14,-0.00,2.12,0.00,20.88,24.93,28.12,9.56,42.15,1003.43,2049.97,2745.19,2750.99,2936.05,500.02,493.74,39.15,0000 0000 0000 0000 000000
2014-05-17 07:43:15,0.01,2.12,0.00,20.87,24.93,28.09,9.47,42.01,1003.45,2049.96,2745.15,2750.89,2936.01,499.79,493.65,39.19,0000 0000 0000 0000 000000
2014-05-17 07:48:16,0.01,2.12,0.00,20.90,24.94,28.11,9.57,42.01,1003.46,2049.98,2745.07,2750.83,2936.00,499.94,493.69,39.23,0000 0000 0000 0000 000000
2014-05-17 07:53:18,0.02,2.12,0.00,20.87,24.95,28.11,9.57,42.08,1003.47,2049.96,2745.04,2750.27,2936.00,499.83,493.65,39.27,0000 0000 0000 0000 000000
2014-05-17 07:58:19,0.05,2.12,0.00,20.90,24.95,28.12,9.61,42.04,1003.47,2049.94,2744.49,2749.85,2935.35,500.00,493.73,39.31,0000 0000 0000 0000 000000
2014-05-17 08:03:20,0.08,2.13,0.00,20.90,24.95,28.13,9.53,42.14,1003.60,2049.96,2743.23,2749.05,2934.41,499.73,493.54,39.35,0000 0000 0000 0000 000000
2014-05-17 08:08:22,0.00,2.13,0.00,20.93,24.95,28.13,9.59,42.01,1003.76,2049.93,2743.00,2748.98,2934.01,500.38,494.37,39.40,0000 0000 0000 0000 000000
2014-05-17 08:13:23,0.00,2.13,0.00,20.93,24.95,28.14,9.58,42.08,1003.58,2049.96,2742.99,2748.96,2934.00,499.87,493.78,39.44,0000 0000 0000 0000 000000
2014-05-17 08:18:24,0.02,2.13,0.00,20.94,24.95,28.04,9.57,42.02,1003.63,2049.87,2742.92,2748.56,2933.98,499.80,493.68,39.48,0000 0000 0000 0000 000000
2014-05-17 08:23:25,0.01,2.13,0.00,20.84,24.95,27.97,9.52,42.14,1003.74,2049.72,2742.44,2748.08,2933.66,499.51,493.71,39.52,0000 0000 0000 0000 000000
2014-05-17 08:28:26,0.07,2.13,0.00,20.88,24.95,27.93,9.54,41.99,1003.85,2049.73,2741.56,2747.67,2932.88,499.96,493.85,39.56,0000 0000 0000 0000 000000
2014-05-17 08:33:28,0.05,2.14,0.00,20.83,24.95,27.98,9.54,41.92,1003.92,2049.78,2741.04,2747.02,2932.09,499.82,494.10,39.60,0000 0000 0000 0000 000000
2014-05-17 08:38:29,0.05,2.14,0.00,20.86,24.95,27.95,9.56,42.08,1003.89,2049.86,2740.90,2746.61,2931.77,499.86,493.96,39.65,0000 0000 0000 0000 000000
2014-05-17 08:43:30,0.04,2.14,0.00,20.81,24.95,28.03,9.56,42.08,1003.91,2049.75,2740.07,2745.90,2930.86,499.94,494.10,39.69,0000 0000 0000 0000 000000
2014-05-17 08:48:31,0.06,2.14,0.00,20.80,24.95,28.05,9.62,42.01,1003.91,2049.77,2739.33,2745.10,2930.04,500.17,494.44,39.73,0000 0000 0000 0000 000000
2014-05-17 08:53:32,0.05,2.14,0.00,20.80,24.95,27.98,9.54,42.11,1003.91,2049.66,2738.76,2744.41,2929.22,500.33,494.65,39.77,0000 0000 0000 0000 000000
2014-05-17 08:58:33,0.08,2.15,0.00,20.83,24.95,28.07,9.61,41.92,1003.92,2049.48,2737.48,2743.42,2928.10,500.17,494.28,39.81,0000 0000 0000 0000 000000
2014-05-17 09:03:35,0.07,2.15,0.00,20.86,24.95,28.09,9.62,42.07,1003.88,2049.46,2736.72,2742.59,2927.09,500.20,494.22,39.85,0000 0000 0000 0000 000000
2014-05-17 09:08:36,0.03,2.15,0.00,20.86,24.95,28.10,9.63,42.11,1003.92,2049.30,2736.04,2742.01,2926.29,500.13,494.21,39.90,0000 0000 0000 0000 000000
2014-05-17 09:13:37,0.06,2.15,0.00,20.84,24.95,28.11,9.58,41.88,1003.84,2049.40,2735.62,2741.63,2925.92,500.03,494.20,39.94,0000 0000 0000 0000 000000
2014-05-17 09:18:38,0.03,2.16,0.00,20.87,24.95,28.15,9.59,41.95,1003.90,2049.47,2735.01,2741.02,2925.15,499.95,494.04,39.98,0000 0000 0000 0000 000000
2014-05-17 09:23:39,-0.01,2.16,0.00,20.84,24.95,28.11,9.62,41.92,1003.92,2049.26,2734.85,2741.00,2925.00,499.50,493.69,40.02,0000 0000 0000 0000 000000
2014-05-17 09:28:40,0.10,2.16,0.00,20.82,24.95,28.12,9.60,41.77,1003.92,2049.35,2733.90,2740.58,2924.61,500.41,494.63,40.06,0000 0000 0000 0000 000000
2014-05-17 09:33:41,0.05,2.16,0.00,20.81,24.95,28.10,9.51,41.98,1003.92,2049.58,2733.04,2740.00,2924.00,499.74,493.89,40.10,0000 0000 0000 0000 000000
2014-05-17 09:38:42,0.32,2.17,0.00,20.77,24.95,28.13,9.59,41.83,1003.92,2049.54,2730.17,2737.51,2921.37,500.38,494.47,40.15,0000 0000 0000 0000 000000
2014-05-17 09:43:44,0.09,2.18,0.00,20.79,24.95,28.09,9.58,41.92,1003.93,2049.54,2727.89,2735.94,2919.61,499.90,494.12,40.19,0000 0000 0000 0000 000000
2014-05-17 09:48:45,0.06,2.18,0.00,20.78,24.95,28.10,9.59,41.87,1004.28,2049.71,2727.03,2735.12,2919.00,500.01,494.43,40.23,0000 0000 0000 0000 000000
2014-05-17 09:53:46,0.00,2.18,0.00,20.75,24.95,28.08,9.54,41.77,1004.41,2049.52,2726.84,2734.99,2918.67,500.00,494.59,40.27,0000 0000 0000 0000 000000
2014-05-17 09:58:48,0.03,2.18,0.00,20.71,24.95,28.02,9.58,41.90,1004.39,2049.49,2726.24,2734.92,2918.07,500.15,494.71,40.31,0000 0000 0000 0000 000000
2014-05-17 10:03:49,0.03,2.19,0.00,20.77,24.95,28.06,9.56,41.85,1004.40,2049.42,2726.00,2734.18,2917.99,500.01,494.56,40.35,0000 0000 0000 0000 000000
2014-05-17 10:08:50,0.03,2.19,0.00,20.75,24.95,28.07,9.56,41.83,1004.40,2049.48,2725.72,2734.01,2917.55,499.78,494.22,40.40,0000 0000 0000 0000 000000
2014-05-17 10:13:51,-0.00,2.19,0.00,20.73,24.95,27.99,9.57,41.99,1004.41,2049.34,2725.21,2733.99,2917.04,499.88,494.46,40.44,0000 0000 0000 0000 000000
2014-05-17 10:18:52,0.03,2.19,0.00,20.67,24.94,27.95,9.63,41.98,1004.39,2049.37,2725.02,2733.57,2917.00,500.08,494.70,40.48,0000 0000 0000 0000 000000
2014-05-17 10:23:53,0.03,2.19,0.00,20.65,24.94,27.95,9.59,42.08,1004.35,2049.40,2724.96,2733.05,2916.78,500.18,494.83,40.52,0000 0000 0000 0000 000000
2014-05-17 10:28:55,-0.00,2.19,0.00,20.64,24.93,27.92,9.57,41.97,1004.36,2049.35,2724.79,2733.00,2916.13,499.83,494.53,40.56,0000 0000 0000 0000 000000
2014-05-17 10:33:56,0.03,2.19,0.00,20.61,24.93,27.90,9.59,41.94,1004.33,2049.32,2724.10,2732.98,2916.00,499.85,494.47,40.61,0000 0000 0000 0000 000000
2014-05-17 10:38:57,0.01,2.19,0.00,20.63,24.92,27.98,9.61,41.92,1004.18,2049.40,2724.01,2732.94,2915.99,499.99,494.72,40.65,0000 0000 0000 0000 000000
2014-05-17 10:43:58,0.01,2.19,0.00,20.74,24.92,28.12,9.60,41.98,1003.96,2049.35,2724.00,2732.59,2915.97,500.40,494.66,40.69,0000 0000 0000 0000 000000
2014-05-17 10:48:59,0.03,2.19,0.00,20.72,24.92,28.13,9.57,41.89,1003.93,2049.47,2723.98,2732.07,2915.57,499.75,494.00,40.73,0000 0000 0000 0000 000000
2014-05-17 10:54:00,0.01,2.19,0.00,20.64,24.92,28.11,9.58,41.90,1003.95,2049.43,2723.97,2732.01,2915.11,499.65,494.20,40.77,0000 0000 0000 0000 000000
2014-05-17 10:59:01,-0.00,2.19,0.00,20.73,24.93,28.18,9.65,42.00,1003.97,2049.28,2723.50,2731.99,2915.00,500.04,494.27,40.81,0000 0000 0000 0000 000000
2014-05-17 11:04:02,0.00,2.19,0.00,20.70,24.95,28.16,9.56,41.86,1003.96,2049.08,2723.08,2731.77,2914.93,499.76,493.99,40.86,0000 0000 0000 0000 000000
2014-05-17 11:09:04,0.04,2.20,0.00,20.69,24.95,28.23,9.60,41.87,1003.98,2049.04,2722.98,2731.09,2914.15,499.88,494.26,40.90,0000 0000 0000 0000 000000
2014-05-17 11:14:05,0.00,2.20,0.00,20.72,24.95,28.23,9.55,41.91,1003.96,2049.04,2722.94,2731.00,2914.01,499.99,494.31,40.94,0000 0000 0000 0000 000000
2014-05-17 11:19:06,0.02,2.20,0.00,20.77,24.97,28.29,9.54,41.87,1003.99,2049.03,2722.29,2730.96,2913.96,499.93,494.04,40.98,0000 0000 0000 0000 000000
2014-05-17 11:24:08,0.05,2.20,0.00,20.73,24.97,28.29,9.60,41.79,1004.22,2049.02,2721.97,2730.35,2913.28,500.21,494.52,41.02,0000 0000 0000 0000 000000
2014-05-17 11:29:09,0.01,2.20,0.00,20.81,24.97,28.33,9.62,41.88,1004.20,2049.00,2721.66,2730.01,2913.00,500.13,494.47,41.06,0000 0000 0000 0000 000000
2014-05-17 11:34:10,0.02,2.20,0.00,20.80,24.97,28.30,9.59,41.83,1004.25,2049.00,2721.02,2729.96,2912.70,499.88,494.36,41.11,0000 0000 0000 0000 000000
2014-05-17 11:39:11,0.06,2.20,0.00,20.76,24.98,28.31,9.62,41.76,1004.16,2049.00,2720.52,2729.34,2912.05,499.93,494.21,41.15,0000 0000 0000 0000 000000
2014-05-17 11:44:12,0.01,2.20,0.00,20.79,24.99,28.26,9.63,41.76,1004.19,2049.00,2719.99,2729.00,2911.99,499.90,494.10,41.19,0000 0000 0000 0000 000000
2014-05-17 11:49:13,0.00,2.20,0.00,20.79,25.00,28.16,9.55,41.79,1004.20,2049.01,2719.98,2729.00,2911.93,499.81,494.25,41.23,0000 0000 0000 0000 000000
2014-05-17 11:54:14,0.01,2.20,0.00,20.76,24.99,28.17,9.54,41.81,1004.09,2049.00,2719.94,2728.99,2911.57,499.61,493.88,41.27,0000 0000 0000 0000 000000
2014-05-17 11:59:15,0.02,2.21,0.00,20.73,25.00,28.13,9.53,41.74,1004.03,2049.01,2719.70,2728.94,2911.17,499.96,494.33,41.31,0000 0000 0000 0000 000000
2014-05-17 12:04:16,0.03,2.21,0.00,20.71,25.00,28.09,9.53,41.85,1004.02,2049.01,2719.06,2728.56,2911.01,499.62,494.22,41.36,0000 0000 0000 0000 000000
2014-05-17 12:09:17,0.01,2.21,0.00,20.67,24.99,28.09,9.61,41.93,1004.22,2049.00,2718.99,2728.07,2910.95,499.59,494.20,41.40,0000 0000 0000 0000 000000
2014-05-17 12:14:18,0.01,2.21,0.00,20.65,24.98,28.02,9.63,42.05,1004.37,2049.00,2718.88,2728.00,2910.59,500.13,494.77,41.44,0000 0000 0000 0000 000000
2014-05-17 12:19:19,0.02,2.21,0.00,20.58,24.97,27.99,9.60,42.04,1004.40,2049.00,2718.17,2728.00,2910.06,500.06,494.80,41.48,0000 0000 0000 0000 000000
2014-05-17 12:24:20,0.00,2.21,0.00,20.55,24.97,27.89,9.56,41.81,1004.30,2049.00,2718.00,2727.99,2910.01,499.78,494.50,41.52,0000 0000 0000 0000 000000
2014-05-17 12:29:21,0.00,2.21,0.00,20.53,24.97,27.97,9.57,41.89,1004.33,2049.00,2718.00,2727.95,2910.00,499.70,494.45,41.56,0000 0000 0000 0000 000000
2014-05-17 12:34:22,0.01,2.21,0.00,20.50,24.97,27.89,9.64,41.99,1004.19,2049.00,2718.00,2727.71,2909.99,500.31,494.85,41.61,0000 0000 0000 0000 000000
2014-05-17 12:39:24,0.02,2.21,0.00,20.45,24.96,27.89,9.65,41.97,1004.09,2049.00,2717.96,2727.28,2909.97,500.64,495.46,41.65,0000 0000 0000 0000 000000
2014-05-17 12:44:25,0.01,2.21,0.00,20.44,24.95,27.85,9.62,41.93,1004.05,2049.00,2717.79,2727.05,2909.89,499.93,494.65,41.69,0000 0000 0000 0000 000000
2014-05-17 12:49:26,0.03,2.21,0.00,20.40,24.93,27.80,9.64,42.03,1003.97,2049.00,2717.22,2727.01,2909.32,500.17,495.12,41.73,0000 0000 0000 0000 000000
2014-05-17 12:54:27,-0.01,2.21,0.00,20.35,24.92,27.87,9.59,42.06,1003.94,2049.01,2717.37,2727.00,2909.29,499.95,494.85,41.77,0000 0000 0000 0000 000000
2014-05-17 12:59:28,0.02,2.21,0.00,20.30,24.90,27.74,9.59,41.89,1003.94,2049.01,2717.24,2727.00,2909.16,499.99,495.06,41.81,0000 0000 0000 0000 000000